| time (UTC) | temp F | wind direction | speed knots | gust knots | rain 1hr in | rain 24hr in | rain mn in | humidity % | barometer mb |
| 20260901204513 | 82 | 303 | 3.5 | 7.0 | 0.00 | 0.00 | 0.00 | 44 | 1011.2 |
| 20260901203019 | 82 | 300 | 1.7 | 7.0 | 0.00 | 0.00 | 0.00 | 44 | 1011.2 |
| 20260901201504 | 81 | 288 | 3.5 | 7.0 | 0.00 | 0.00 | 0.00 | 44 | 1011.4 |
| 20260901200022 | 81 | 262 | 3.5 | 7.0 | 0.00 | 0.00 | 0.00 | 44 | 1011.5 |
| 20260901194516 | 80 | 324 | 1.7 | 7.8 | 0.00 | 0.00 | 0.00 | 45 | 1011.5 |
| 20260901193133 | 82 | 182 | 4.3 | 8.7 | 0.00 | 0.00 | 0.00 | 46 | 1011.5 |
| 20260901191506 | 82 | 263 | 4.3 | 7.8 | 0.00 | 0.00 | 0.00 | 45 | 1011.6 |
| 20260901190010 | 81 | 237 | 3.5 | 7.0 | 0.00 | 0.00 | 0.00 | 46 | 1011.8 |
| 20260901184507 | 81 | 214 | 2.6 | 7.8 | 0.00 | 0.00 | 0.00 | 48 | 1011.8 |
| 20260901183017 | 81 | 335 | 2.6 | 5.2 | 0.00 | 0.00 | 0.00 | 45 | 1012.0 |
| 20260901181622 | 80 | 290 | 2.6 | 7.0 | 0.00 | 0.00 | 0.00 | 48 | 1012.2 |
| 20260901180128 | 80 | 334 | 1.7 | 5.2 | 0.00 | 0.00 | 0.00 | 49 | 1012.3 |
| 20260901174513 | 79 | 104 | 0.0 | 3.5 | 0.00 | 0.00 | 0.00 | 52 | 1012.5 |
| 20260901173003 | 79 | 312 | 1.7 | 5.2 | 0.00 | 0.00 | 0.00 | 54 | 1012.4 |
| 20260901171508 | 79 | 298 | 0.9 | 7.0 | 0.00 | 0.00 | 0.00 | 60 | 1012.4 |
| 20260901170200 | 78 | 331 | 2.6 | 4.3 | 0.00 | 0.00 | 0.00 | 57 | 1012.4 |
| 20260901164515 | 78 | 80 | 0.0 | 2.6 | 0.00 | 0.00 | 0.00 | 64 | 1012.7 |
| 20260901163017 | 76 | 10 | 0.0 | 2.6 | 0.00 | 0.00 | 0.00 | 63 | 1012.7 |
| 20260901161509 | 75 | 27 | 0.9 | 2.6 | 0.00 | 0.00 | 0.00 | 64 | 1012.7 |
| 20260901160007 | 75 | 29 | 0.9 | 2.6 | 0.00 | 0.00 | 0.00 | 65 | 1012.7 |
| 20260901154638 | 75 | 14 | 0.0 | 2.6 | 0.00 | 0.00 | 0.00 | 67 | 1012.8 |
| 20260901153011 | 73 | 296 | 0.9 | 3.5 | 0.00 | 0.00 | 0.00 | 69 | 1012.8 |
| 20260901151516 | 73 | 14 | 0.9 | 2.6 | 0.00 | 0.00 | 0.00 | 71 | 1012.8 |
| 20260901150007 | 72 | 340 | 1.7 | 5.2 | 0.00 | 0.00 | 0.00 | 71 | 1012.9 |
| 20260901144505 | 71 | 13 | 1.7 | 5.2 | 0.00 | 0.00 | 0.00 | 75 | 1012.7 |
| 20260901143016 | 70 | 315 | 3.5 | 5.2 | 0.00 | 0.00 | 0.00 | 76 | 1012.8 |
| 20260901141505 | 69 | 274 | 1.7 | 7.0 | 0.00 | 0.00 | 0.00 | 79 | 1012.7 |
| 20260901140015 | 68 | 293 | 2.6 | 7.8 | 0.00 | 0.00 | 0.00 | 82 | 1012.9 |
| 20260901134506 | 67 | 255 | 0.9 | 7.0 | 0.00 | 0.00 | 0.00 | 85 | 1012.8 |
| 20260901133011 | 66 | 278 | 1.7 | 6.1 | 0.00 | 0.00 | 0.00 | 89 | 1012.7 |
| 20260901131636 | 64 | 271 | 0.9 | 4.3 | 0.00 | 0.00 | 0.00 | 92 | 1012.6 |
| 20260901130014 | 62 | 301 | 1.7 | 3.5 | 0.00 | 0.00 | 0.00 | 94 | 1012.5 |
| 20260901124509 | 61 | 302 | 0.9 | 1.7 | 0.00 | 0.00 | 0.00 | 94 | 1012.4 |
| 20260901123009 | 59 | 302 | 0.0 | 1.7 | 0.00 | 0.00 | 0.00 | 94 | 1012.2 |
| 20260901121514 | 57 | 302 | 0.0 | 0.0 | 0.00 | 0.00 | 0.00 | 94 | 1012.1 |
| 20260901120129 | 57 | 302 | 0.0 | 0.0 | 0.00 | 0.00 | 0.00 | 94 | 1011.9 |
| 20260901114633 | 56 | 302 | 0.0 | 0.9 | 0.00 | 0.00 | 0.00 | 94 | 1011.8 |
| 20260901113011 | 57 | 302 | 0.0 | 0.0 | 0.00 | 0.00 | 0.00 | 94 | 1011.7 |
| 20260901111513 | 57 | 302 | 0.0 | 0.9 | 0.00 | 0.00 | 0.00 | 94 | 1011.6 |
| 20260901110005 | 57 | 302 | 0.0 | 1.7 | 0.00 | 0.00 | 0.00 | 94 | 1011.5 |
| 20260901104517 | 57 | 302 | 0.9 | 2.6 | 0.00 | 0.00 | 0.00 | 94 | 1011.4 |
| 20260901103129 | 57 | 302 | 0.9 | 2.6 | 0.00 | 0.00 | 0.00 | 94 | 1011.5 |
| 20260901101506 | 58 | 302 | 0.0 | 1.7 | 0.00 | 0.00 | 0.00 | 93 | 1011.3 |
| 20260901100013 | 58 | 302 | 1.7 | 2.6 | 0.00 | 0.00 | 0.00 | 93 | 1011.2 |
| 20260901094505 | 58 | 302 | 0.0 | 1.7 | 0.00 | 0.00 | 0.00 | 93 | 1011.0 |
| 20260901093004 | 59 | 302 | 0.0 | 1.7 | 0.00 | 0.00 | 0.00 | 93 | 1011.0 |
| 20260901091513 | 60 | 302 | 0.0 | 1.7 | 0.00 | 0.00 | 0.00 | 94 | 1011.0 |
| 20260901090126 | 58 | 302 | 0.0 | 1.7 | 0.00 | 0.00 | 0.00 | 94 | 1010.8 |
| 20260901084517 | 58 | 302 | 0.0 | 0.9 | 0.00 | 0.00 | 0.00 | 93 | 1010.8 |
| 20260901083126 | 58 | 302 | 0.9 | 1.7 | 0.00 | 0.00 | 0.00 | 93 | 1010.6 |
| 20260901081504 | 59 | 302 | 0.0 | 0.9 | 0.00 | 0.00 | 0.00 | 93 | 1010.7 |
| 20260901080003 | 58 | 302 | 0.0 | 0.9 | 0.00 | 0.00 | 0.00 | 93 | 1010.8 |
| 20260901074627 | 59 | 302 | 0.0 | 0.0 | 0.00 | 0.00 | 0.00 | 93 | 1010.7 |
| 20260901073026 | 59 | 302 | 0.9 | 1.7 | 0.00 | 0.00 | 0.00 | 93 | 1011.0 |
| 20260901071515 | 59 | 302 | 0.9 | 1.7 | 0.00 | 0.00 | 0.00 | 93 | 1011.0 |
| 20260901070021 | 60 | 302 | 0.9 | 1.7 | 0.00 | 0.00 | 0.00 | 93 | 1011.2 |
| 20260901064503 | 60 | 302 | 0.0 | 1.7 | 0.00 | 0.00 | 0.00 | 93 | 1011.3 |
| 20260901063012 | 60 | 302 | 0.0 | 0.0 | 0.00 | 0.00 | 0.00 | 93 | 1011.5 |
| 20260901061506 | 61 | 302 | 0.0 | 1.7 | 0.00 | 0.00 | 0.00 | 93 | 1011.4 |
| 20260901060011 | 61 | 302 | 0.0 | 0.0 | 0.00 | 0.00 | 0.00 | 93 | 1011.3 |
| 20260901054503 | 61 | 302 | 0.0 | 0.0 | 0.00 | 0.00 | 0.00 | 92 | 1011.3 |
| 20260901053009 | 61 | 302 | 0.0 | 1.7 | 0.00 | 0.00 | 0.00 | 92 | 1011.2 |
| 20260901051630 | 62 | 302 | 0.0 | 0.9 | 0.00 | 0.00 | 0.00 | 92 | 1011.1 |
| 20260901050127 | 62 | 302 | 0.0 | 0.0 | 0.00 | 0.00 | 0.00 | 92 | 1011.0 |
| 20260901044507 | 62 | 302 | 0.0 | 0.0 | 0.00 | 0.00 | 0.00 | 92 | 1011.0 |
| 20260901043006 | 62 | 302 | 0.0 | 1.7 | 0.00 | 0.00 | 0.00 | 92 | 1010.9 |
| 20260901041505 | 63 | 302 | 0.0 | 0.9 | 0.00 | 0.00 | 0.00 | 91 | 1010.7 |
| 20260901040007 | 63 | 302 | 0.0 | 0.9 | 0.00 | 0.00 | 0.00 | 91 | 1010.6 |
| 20260901034522 | 64 | 302 | 0.0 | 1.7 | 0.00 | 0.00 | 0.00 | 90 | 1010.7 |
| 20260901033011 | 64 | 302 | 0.0 | 0.9 | 0.00 | 0.00 | 0.00 | 89 | 1010.6 |
| 20260901031627 | 65 | 302 | 0.0 | 0.0 | 0.00 | 0.00 | 0.00 | 89 | 1010.4 |
| 20260901030018 | 65 | 302 | 0.0 | 0.9 | 0.00 | 0.00 | 0.00 | 88 | 1010.4 |
| 20260901024514 | 66 | 302 | 0.0 | 0.9 | 0.00 | 0.00 | 0.00 | 88 | 1010.1 |
| 20260901023127 | 66 | 302 | 0.0 | 1.7 | 0.00 | 0.00 | 0.00 | 87 | 1010.2 |
| 20260901021515 | 67 | 302 | 0.0 | 0.0 | 0.00 | 0.00 | 0.00 | 86 | 1010.1 |
| 20260901020011 | 68 | 302 | 0.0 | 0.0 | 0.00 | 0.00 | 0.00 | 85 | 1010.1 |
| 20260901014507 | 68 | 302 | 0.0 | 1.7 | 0.00 | 0.00 | 0.00 | 83 | 1010.0 |
| 20260901013133 | 69 | 302 | 0.0 | 0.0 | 0.00 | 0.00 | 0.00 | 80 | 1009.8 |
| 20260901011509 | 70 | 302 | 0.0 | 0.0 | 0.00 | 0.00 | 0.00 | 77 | 1009.6 |
| 20260901010003 | 72 | 302 | 0.0 | 0.0 | 0.00 | 0.00 | 0.00 | 74 | 1009.7 |
| 20260901004515 | 74 | 302 | 0.0 | 0.9 | 0.00 | 0.00 | 0.00 | 68 | 1009.6 |
| 20260901003007 | 79 | 302 | 1.7 | 2.6 | 0.00 | 0.00 | 0.00 | 55 | 1009.6 |
| 20260901001626 | 81 | 302 | 0.9 | 2.6 | 0.00 | 0.00 | 0.00 | 52 | 1009.6 |
| 20260901000015 | 82 | 302 | 1.7 | 4.3 | 0.00 | 0.00 | 0.00 | 48 | 1009.4 |
| 20260831234503 | 83 | 303 | 1.7 | 4.3 | 0.00 | 0.00 | 0.00 | 47 | 1009.3 |
| 20260831233014 | 84 | 283 | 2.6 | 5.2 | 0.00 | 0.00 | 0.00 | 45 | 1009.3 |
| 20260831231502 | 84 | 301 | 2.6 | 4.3 | 0.00 | 0.00 | 0.00 | 44 | 1009.4 |
| 20260831230013 | 84 | 217 | 3.5 | 7.8 | 0.00 | 0.00 | 0.00 | 46 | 1009.3 |
| 20260831224512 | 84 | 250 | 4.3 | 7.8 | 0.00 | 0.00 | 0.00 | 47 | 1009.2 |
| 20260831223012 | 85 | 311 | 2.6 | 7.0 | 0.00 | 0.00 | 0.00 | 50 | 1009.3 |
| 20260831221529 | 86 | 270 | 1.7 | 7.0 | 0.00 | 0.00 | 0.00 | 50 | 1009.0 |
| 20260831220128 | 85 | 309 | 2.6 | 7.0 | 0.00 | 0.00 | 0.00 | 48 | 1009.0 |
| 20260831214624 | 86 | 332 | 1.7 | 8.7 | 0.00 | 0.00 | 0.00 | 48 | 1008.8 |
| 20260831213013 | 85 | 265 | 2.6 | 7.0 | 0.00 | 0.00 | 0.00 | 48 | 1008.9 |
| 20260831211516 | 86 | 340 | 2.6 | 8.7 | 0.00 | 0.00 | 0.00 | 48 | 1009.0 |
| 20260831210010 | 85 | 311 | 5.2 | 9.6 | 0.00 | 0.00 | 0.00 | 47 | 1008.9 |